Wind_Speed
22 20 19 17 17 16 15 15 15 15 14 13 13 12 11 10 9 8 7 6 5 4 3 2 2 1 1 1 1 2 1 2 2 2 3 3 4 4 4 4 5 5 5 5 5 5 5 5 5 5 6 6 6 6 6 6 7 7 7 7 7 8 8 8 8 8 7 7 6 4 3 2 0 1 1 1 1 2 3 3 3 3 3 4 3
20 20 19 17 17 15 15 15 14 14 14 13 13 11 10 10 9 8 8 7 6 5 4 4 3 2 1 1 0 1 1 1 1 2 3 3 4 4 3 3 3 4 4 4 5 5 4 4 4 4 4 5 5 4 5 7 7 7 6 6 6 7 7 8 8 7 7 7 6 5 4 3 1 1 1 1 1 2 1 3 3 2 3 3 4
18 18 19 18 17 15 15 14 14 13 13 14 13 12 10 10 9 9 9 8 8 6 6 5 5 4 3 2 2 2 1 1 1 1 0 1 2 2 2 2 2 2 2 3 4 4 4 4 4 3 3 3 4 5 6 7 7 6 6 5 5 6 7 8 8 7 7 6 6 5 5 3 2 2 2 1 0 3 2 2 2 2 3 4 5
19 18 18 18 17 16 15 14 13 13 13 14 14 13 12 11 10 9 9 8 8 7 7 7 6 6 5 4 3 3 3 3 3 3 3 3 2 2 2 2 2 1 1 2 3 3 3 3 3 3 3 3 4 5 7 7 6 6 6 5 5 6 6 7 7 7 7 6 5 4 4 3 3 2 3 3 2 4 5 3 2 3 3 4 6
19 19 18 18 18 17 16 15 14 13 13 14 14 14 13 12 11 10 10 8 8 8 9 8 8 8 7 7 6 6 6 6 6 6 6 5 5 5 5 5 4 3 2 2 3 3 2 2 3 4 4 5 6 7 7 7 6 6 6 6 6 5 5 6 5 5 5 5 5 5 5 4 5 3 2 5 5 5 5 5 4 5 6 6 7
20 19 19 18 18 18 17 15 15 15 14 14 14 14 13 12 11 11 11 10 10 10 11 10 10 9 9 9 9 9 8 9 9 9 8 8 8 8 8 8 7 7 5 4 5 5 5 6 7 7 8 9 9 8 8 8 8 7 7 7 6 5 4 4 3 3 3 3 4 4 5 6 6 4 2 4 6 7 6 6 6 6 6 7 7
20 19 20 20 18 18 17 16 16 15 14 14 14 13 12 11 11 11 11 11 11 12 12 12 11 11 11 11 11 11 11 10 10 10 9 9 10 10 10 9 9 9 9 9 9 9 9 10 10 10 10 10 10 10 10 9 9 9 9 9 8 8 6 5 3 3 2 1 2 3 4 5 6 6 5 4 6 8 7 6 6 6 7 7 7
21 21 21 21 20 19 18 17 16 15 14 14 13 12 12 12 12 12 12 12 12 13 13 12 12 12 12 11 11 11 10 10 9 9 9 9 10 10 9 9 9 10 11 12 12 12 12 13 12 12 12 12 12 12 11 11 11 11 11 11 11 10 9 7 6 4 4 3 2 2 2 3 5 5 6 6 7 8 9 9 7 7 8 8 8
20 21 21 21 20 20 19 18 16 15 15 14 13 12 12 12 12 13 13 13 13 13 12 12 11 10 10 10 9 9 8 8 7 8 8 8 8 8 8 8 8 9 10 11 11 11 12 13 13 13 13 13 13 13 13 13 13 13 13 13 13 13 13 11 9 7 6 5 5 4 2 2 4 4 5 7 8 10 11 10 8 8 9 9 9
19 21 22 22 22 21 20 19 18 17 16 15 14 13 13 13 13 13 13 13 13 12 11 10 9 9 9 9 8 8 7 7 7 7 7 8 8 8 8 8 8 9 9 9 10 10 10 10 11 11 11 12 12 12 13 14 14 14 14 14 14 14 14 14 12 11 10 9 8 6 5 4 4 4 5 7 8 10 11 11 10 9 9 10 10
19 22 23 23 23 22 22 20 19 18 17 15 14 14 14 13 13 12 12 12 12 11 10 9 8 8 8 8 7 7 7 7 7 7 7 7 8 8 8 9 9 9 9 9 9 9 9 9 9 10 10 10 11 11 12 13 13 14 14 15 15 14 15 14 14 13 13 12 11 10 9 8 7 6 6 7 7 8 10 11 10 9 9 9 9
19 22 24 24 24 24 23 22 20 19 17 15 14 14 14 13 13 12 12 12 11 10 9 9 8 8 7 6 6 5 5 5 5 5 6 6 6 7 7 8 8 8 8 8 8 8 7 7 7 7 8 8 9 9 10 11 12 12 13 14 14 15 14 14 14 14 13 13 13 13 12 11 9 8 8 8 8 8 9 11 10 9 9 9 9
17 20 24 24 25 24 23 22 21 19 17 15 15 14 14 14 13 13 13 12 12 11 10 9 8 7 6 5 5 4 3 3 3 3 3 4 4 4 4 4 4 4 4 4 4 4 3 3 3 4 3 4 4 5 5 6 7 8 9 10 11 12 12 13 14 14 14 14 14 13 13 12 11 11 10 10 9 8 9 11 11 10 10 10 10
15 19 22 24 25 24 24 23 21 19 17 16 16 15 15 15 14 14 14 13 13 12 11 10 9 8 7 6 4 4 3 3 2 2 2 2 2 2 2 2 2 2 2 2 1 1 0 1 1 2 2 3 3 3 3 3 4 4 5 6 7 7 8 9 10 12 13 14 14 14 14 14 13 13 12 12 11 10 9 11 13 12 12 13 12
15 18 21 24 25 25 24 23 21 20 18 18 17 17 16 16 15 15 15 14 14 13 12 12 10 9 7 6 5 4 3 3 3 3 2 2 2 2 2 2 3 3 3 2 2 2 1 1 2 2 3 4 4 4 4 4 4 4 4 4 5 5 5 6 6 8 9 12 13 15 16 16 15 15 13 13 12 12 12 12 14 14 14 14 14
15 18 21 24 25 25 24 23 22 21 20 19 18 18 18 17 17 16 16 16 15 15 14 13 11 9 8 6 5 4 4 4 4 4 4 4 4 4 3 3 2 2 1 1 1 1 2 2 3 3 4 4 4 5 5 5 5 5 5 5 5 5 4 5 5 5 7 9 11 13 15 16 16 15 15 14 13 13 12 12 13 13 15 15 14
17 19 22 24 25 25 24 24 23 22 21 20 19 19 19 18 18 17 17 17 16 15 14 13 11 9 7 6 5 5 5 5 5 5 5 5 5 5 4 3 3 2 1 1 1 2 3 3 4 4 5 5 5 6 6 5 5 5 5 6 5 5 5 5 5 5 5 6 8 11 12 14 15 15 15 15 14 13 11 11 11 11 14 14 13
18 20 23 25 25 26 25 25 25 24 23 22 20 20 19 19 18 18 18 17 17 16 15 13 11 9 7 6 5 4 5 5 6 6 6 6 6 5 4 3 3 2 1 1 2 2 3 4 4 5 6 7 7 8 8 8 7 7 6 6 6 6 5 5 5 5 5 6 6 8 9 11 13 15 15 15 15 14 12 11 11 13 14 14 14
19 20 23 25 26 26 27 27 27 26 25 23 22 21 20 19 18 18 18 18 18 17 16 14 12 10 7 5 5 4 5 5 5 6 6 6 5 5 4 3 2 2 1 1 1 2 3 4 5 6 7 8 9 9 10 10 10 9 9 8 7 7 6 6 6 5 5 5 6 6 7 8 10 12 14 15 15 16 15 15 15 16 17 17 16
21 22 23 26 27 28 28 28 28 27 26 25 24 23 21 20 19 18 18 18 18 18 17 15 12 10 8 6 5 5 5 5 5 6 6 5 5 4 4 3 3 2 2 2 3 4 5 6 7 8 10 10 11 11 11 11 11 11 11 10 9 8 8 7 6 6 6 6 6 6 6 7 8 10 11 13 14 15 16 16 16 16 17 18 18
22 23 24 26 28 29 29 29 29 28 28 27 25 24 23 22 21 20 19 19 19 18 17 15 13 10 8 6 5 4 4 4 5 5 5 5 5 5 4 4 4 4 3 4 5 6 7 8 10 11 12 13 13 14 14 14 14 13 13 12 11 11 10 9 8 7 7 7 7 6 6 7 7 8 10 11 13 14 14 15 15 15 16 17 18
23 23 24 27 29 30 30 30 30 29 29 28 27 26 25 23 22 22 21 20 20 19 18 16 14 11 9 7 5 4 4 4 5 5 5 5 5 5 5 4 4 4 5 6 7 9 10 11 13 14 15 15 16 16 16 16 16 15 15 14 13 12 12 11 10 9 8 8 7 7 7 7 7 8 9 10 11 12 12 12 13 13 13 13 14
25 24 23 25 28 30 31 31 31 30 30 29 28 27 26 25 24 23 22 21 21 20 19 17 15 13 11 9 7 5 5 6 6 6 6 6 6 6 6 6 6 6 7 8 10 11 12 14 15 16 17 17 18 18 18 18 17 17 16 15 14 13 13 12 11 10 9 9 9 8 8 7 7 8 8 9 9 10 11 11 11 12 12 12 12
27 24 23 25 27 29 31 32 32 32 31 30 30 29 27 26 26 25 23 23 22 21 20 19 17 15 13 11 9 7 7 7 8 8 8 8 8 8 8 8 8 9 10 10 11 12 14 15 16 17 17 18 18 19 19 19 18 18 17 16 15 14 14 13 12 11 10 10 10 10 9 9 9 9 9 9 9 10 10 11 11 11 11 11 11
27 26 27 28 29 29 30 32 32 33 32 32 31 30 29 28 28 26 25 24 23 23 22 20 19 17 15 13 11 10 9 9 9 9 10 10 10 10 10 10 10 10 11 11 12 13 14 16 16 17 17 18 19 19 19 19 19 18 17 16 15 15 14 13 13 12 11 10 10 10 10 10 10 10 10 10 10 11 11 11 11 12 12 12 11
30 30 30 29 29 30 31 32 33 34 34 33 32 31 31 29 29 28 27 26 25 24 23 22 21 19 18 16 14 13 12 11 11 11 11 12 12 12 12 11 11 11 12 12 13 14 15 16 16 17 18 18 19 19 19 19 18 17 17 16 15 15 14 13 13 12 12 11 11 11 11 11 11 11 11 12 12 12 12 12 12 12 12 12 12
31 31 31 30 30 30 32 33 33 34 34 34 34 33 32 31 30 29 28 27 26 26 25 23 22 21 20 18 17 15 14 13 13 13 13 13 13 13 13 13 13 13 13 13 14 14 15 16 16 17 17 18 18 18 18 18 17 16 15 15 15 14 14 13 13 12 12 11 11 12 12 12 12 12 12 12 12 13 13 13 13 13 13 13 13
31 31 31 31 31 31 32 33 34 35 35 35 36 35 34 32 32 31 29 28 27 27 25 24 24 23 21 19 18 17 16 15 15 14 14 15 15 15 14 14 14 14 14 14 14 14 15 16 16 17 17 17 17 17 16 16 16 14 14 14 13 13 13 13 13 12 12 11 11 11 12 12 12 13 12 12 13 13 13 13 13 14 14 14 14
34 31 31 32 31 32 33 34 34 35 35 36 37 37 36 35 34 33 32 30 29 27 25 25 25 24 22 20 19 18 17 16 16 16 16 16 16 16 15 15 14 14 14 14 15 15 15 16 17 17 17 17 16 15 15 15 14 14 13 13 13 12 12 12 12 12 11 11 10 10 11 11 11 11 11 11 12 12 12 13 13 13 14 14 14
36 33 33 32 32 34 34 34 34 35 35 36 37 38 37 37 36 35 33 32 30 28 27 26 26 25 23 21 20 18 17 17 17 17 17 17 17 17 16 15 15 15 14 14 15 15 16 17 17 18 18 17 16 15 14 14 14 14 13 13 13 12 12 12 12 11 11 10 9 9 9 10 10 9 9 9 10 11 11 12 12 12 13 13 13
39 37 36 34 33 34 34 35 35 35 36 36 37 38 38 39 37 36 34 33 32 30 29 28 27 26 24 22 21 19 19 19 19 19 19 19 18 17 17 15 15 15 15 15 15 15 16 17 17 18 18 17 17 16 15 14 14 14 13 13 13 12 12 12 12 11 10 10 9 8 8 8 8 7 8 9 10 10 10 11 11 11 11 11 11
40 39 37 37 36 36 35 36 37 36 36 36 37 38 39 39 38 37 36 34 33 32 30 29 28 27 25 24 22 21 21 21 20 20 20 20 19 18 17 16 15 15 15 15 15 16 16 17 18 18 18 17 17 17 16 15 14 14 14 13 13 13 12 12 12 11 10 9 8 7 6 5 6 6 7 9 10 9 9 9 10 10 9 9 9
38 37 38 39 38 37 36 36 37 38 37 37 37 38 39 39 39 38 36 35 34 32 31 29 29 28 27 25 23 23 22 22 22 21 22 21 20 19 17 17 16 16 16 16 16 16 16 17 17 17 17 17 17 17 16 16 15 15 15 14 14 14 13 13 12 11 10 9 7 5 4 4 4 4 5 6 7 6 5 6 7 7 7 7 8
38 38 39 39 39 39 38 37 37 38 38 37 37 37 39 39 39 38 37 36 35 33 31 30 30 29 28 26 25 25 24 24 23 23 23 22 21 20 18 18 17 17 16 16 16 15 16 16 17 17 17 17 17 17 17 16 16 16 16 15 15 14 14 13 12 11 10 8 5 3 3 3 4 3 3 4 4 3 3 4 5 6 6 7 7
40 39 37 36 39 40 39 39 38 38 38 38 37 37 38 38 38 38 38 37 36 34 33 31 30 30 29 28 27 26 25 25 24 24 24 23 22 21 20 19 18 18 17 16 15 15 15 16 16 17 17 17 17 18 17 17 17 17 16 16 15 14 13 13 12 11 8 5 1 1 3 3 3 3 4 4 3 2 3 3 4 5 6 7 8
42 38 36 36 39 41 40 40 39 38 39 38 37 36 36 37 37 37 38 38 37 35 34 32 31 30 30 29 28 27 27 26 25 25 25 24 23 21 21 20 19 18 17 16 15 15 15 16 16 17 17 17 17 17 18 18 18 17 17 16 15 14 13 12 11 9 6 3 1 1 0 1 3 4 4 4 4 4 5 5 5 6 7 8 8
43 39 38 38 39 41 41 41 40 39 38 38 37 36 36 36 35 36 37 38 37 36 34 33 32 32 31 30 29 28 28 27 27 27 26 25 23 22 22 21 20 19 18 17 16 16 16 16 17 17 17 17 17 18 18 18 18 17 17 15 14 13 12 11 9 7 5 4 2 4 6 5 5 5 6 8 9 8 8 8 9 9 9 9 10
44 41 40 39 40 41 41 41 41 40 40 39 38 37 36 35 34 35 37 38 38 36 35 34 33 33 32 31 30 29 29 28 28 28 27 26 24 23 22 21 21 20 18 17 16 16 16 16 16 17 17 18 18 18 19 18 18 18 16 15 13 12 11 10 7 5 5 5 5 8 8 7 7 9 11 12 12 12 12 12 12 12 12 12 12
44 43 41 41 42 42 43 43 42 42 41 40 39 37 36 35 35 35 37 38 38 37 36 36 35 34 33 31 30 30 30 29 29 29 28 27 26 24 23 22 22 20 19 17 16 15 14 14 15 16 17 18 18 19 19 19 18 18 17 15 13 12 11 9 6 4 5 7 9 9 7 8 10 12 13 13 14 15 16 16 16 16 15 15 14
44 43 42 42 44 44 45 45 44 43 42 42 41 40 38 36 36 36 38 39 40 39 38 37 37 35 33 32 31 31 31 30 30 30 29 27 26 25 24 24 22 21 19 17 16 14 13 14 15 15 16 17 18 19 19 19 19 19 18 14 13 13 10 8 3 2 7 11 9 5 7 11 12 13 13 14 15 16 17 18 18 19 18 17 16
43 43 42 43 44 45 46 47 46 45 44 44 43 42 40 38 37 37 38 39 40 41 40 39 38 36 34 33 32 32 32 32 31 31 30 28 27 26 26 25 23 22 20 18 16 14 13 14 14 15 16 16 17 17 18 19 19 20 19 16 14 11 9 6 4 3 14 12 4 5 10 13 12 13 14 15 16 17 18 19 20 21 21 21 20
41 42 41 41 43 46 47 47 46 46 45 45 44 43 41 39 37 36 36 38 40 40 40 39 39 37 36 34 33 33 33 33 32 31 30 30 29 28 27 26 24 23 21 19 16 14 13 13 14 15 15 16 16 16 16 18 18 19 20 21 17 12 9 5 5 11 17 5 3 11 14 14 14 14 15 15 17 18 19 20 21 23 23 24 24
39 40 41 40 43 46 47 47 47 46 46 45 45 43 41 39 37 35 35 36 38 39 38 38 38 38 37 36 35 35 35 34 33 32 32 31 30 29 28 27 25 24 21 19 16 14 13 13 13 14 15 15 15 15 15 16 16 18 20 21 21 17 10 2 8 17 12 3 10 17 16 16 16 16 16 17 18 19 20 22 23 24 25 26 26
37 39 41 42 44 45 47 48 47 47 46 45 44 43 41 39 38 36 35 35 36 37 38 39 39 39 39 38 37 36 36 35 34 33 33 32 31 30 29 28 26 24 22 19 16 14 13 12 12 13 14 15 15 15 15 15 15 17 18 18 19 16 8 8 21 21 8 8 17 19 19 20 18 18 19 19 20 21 22 24 26 27 27 28 29
37 39 40 41 42 43 46 47 46 46 45 45 44 43 43 42 40 38 37 37 37 38 40 41 42 42 41 40 38 37 37 36 35 35 34 33 32 31 30 29 27 25 22 19 17 15 13 11 11 12 14 15 15 15 15 14 14 15 16 15 12 11 13 21 28 21 14 16 18 19 21 21 20 20 21 22 22 23 25 26 27 29 30 30 31
37 36 37 39 40 42 45 45 46 45 45 45 45 44 44 43 42 41 40 40 40 41 42 42 42 42 41 41 39 37 37 37 37 36 35 34 34 33 32 30 28 26 23 20 18 15 13 11 11 11 13 15 15 15 15 14 14 14 15 14 12 13 19 25 24 24 27 23 16 18 21 21 22 22 22 24 25 26 27 28 29 30 32 32 32
34 35 37 39 41 43 44 44 45 45 44 45 45 45 44 43 43 41 40 40 41 41 41 41 41 40 40 40 39 38 38 38 38 37 37 35 35 34 33 31 29 26 24 21 19 15 12 11 10 11 13 16 16 16 15 14 14 14 14 15 14 15 18 20 20 25 32 31 25 21 20 22 25 24 24 26 28 30 30 29 31 32 33 33 34
33 35 37 39 41 43 43 43 44 43 43 44 44 44 43 43 42 41 40 41 41 41 40 41 41 40 40 39 38 38 39 39 39 38 38 37 36 36 34 32 30 28 25 22 19 16 13 11 10 11 12 15 16 16 16 14 14 14 13 13 13 13 14 15 16 18 22 32 35 29 25 27 26 24 26 28 30 32 33 32 34 35 35 35 35
33 35 35 37 40 42 42 43 43 43 43 43 43 42 42 41 40 41 42 41 42 42 42 42 41 40 39 39 38 38 39 39 40 39 39 38 38 37 36 34 32 29 26 23 20 17 14 12 11 11 12 15 17 17 17 15 14 14 14 13 12 12 11 10 11 13 15 23 30 32 33 34 30 25 26 31 33 34 35 35 36 37 38 37 35
32 34 35 38 41 42 42 43 43 43 42 42 42 41 40 41 41 42 42 42 43 44 44 44 43 42 40 40 39 39 40 40 40 41 40 39 39 38 37 35 32 29 27 24 21 18 14 12 11 11 12 15 17 18 18 16 15 15 14 13 12 11 10 8 8 10 12 17 22 27 30 33 36 32 28 33 37 36 35 36 37 38 38 38 36
31 34 36 39 40 41 41 42 42 42 42 41 41 40 40 41 41 41 41 42 43 44 45 46 45 45 44 43 41 41 41 41 42 42 41 41 40 39 38 35 33 30 27 25 21 18 15 13 12 11 13 16 18 18 19 17 15 15 14 14 14 13 12 10 9 10 13 16 21 27 28 29 34 35 33 34 36 36 36 36 37 37 38 38 36
Wind_Direction
191 191 195 199 199 197 199 203 206 206 204 202 198 197 199 205 209 212 212 210 210 208 217 226 236 243 300 16 26 21 8 355 358 358 10 18 19 8 356 353 351 350 348 346 341 339 342 348 348 349 357 7 14 17 22 22 14 6 4 6 9 9 9 13 18 23 29 37 41 45 50 64 52 317 329 324 330 333 345 355 1 348 338 336 328
191 192 196 200 201 198 202 205 206 207 206 204 198 193 193 198 201 204 205 205 206 202 207 215 211 197 186 181 159 81 51 42 39 48 59 45 36 28 19 4 357 354 343 335 326 328 329 325 326 338 350 354 356 357 360 358 356 355 356 6 13 11 9 9 9 13 21 29 32 37 43 49 51 42 58 51 359 301 331 357 354 342 330 326 316
193 194 196 199 202 201 205 205 206 208 208 205 199 195 191 191 191 193 194 194 194 190 193 193 188 181 181 188 185 167 155 153 144 148 162 351 13 20 22 10 354 352 340 322 314 315 311 310 310 316 332 333 335 333 335 340 347 349 352 360 5 8 9 9 6 5 9 17 23 34 41 35 27 39 34 71 241 275 284 320 328 329 334 342 331
194 196 195 198 201 202 207 207 207 209 204 198 197 195 190 188 185 187 188 188 189 188 192 195 196 197 205 211 209 206 213 211 219 232 244 262 261 262 273 281 279 276 284 293 286 288 296 301 298 310 330 325 323 323 325 330 334 335 339 342 343 351 358 3 7 8 5 2 3 9 21 13 345 22 8 339 299 281 286 287 291 312 327 358 352
194 195 197 198 200 201 205 209 211 210 200 193 194 193 192 193 193 197 200 204 205 205 209 216 221 222 225 224 223 225 230 230 233 238 239 241 242 244 249 251 253 246 226 241 253 253 252 253 274 297 305 302 305 306 308 308 308 312 317 319 319 326 336 347 357 5 8 3 355 346 345 344 330 358 357 318 318 308 303 303 294 297 304 323 340
195 195 198 199 200 200 203 209 211 208 201 196 196 199 202 203 203 205 208 213 214 217 222 225 228 229 228 226 226 226 229 233 235 238 240 243 246 246 246 248 248 245 234 223 225 225 231 249 268 279 281 284 288 288 289 287 286 289 292 297 299 301 309 321 330 342 357 5 360 348 335 330 325 324 311 299 312 311 309 324 323 317 315 311 315
197 195 197 200 201 201 204 207 207 204 201 199 200 203 205 205 204 204 206 208 209 213 218 219 219 221 222 224 223 225 227 231 236 241 246 248 249 249 246 244 242 240 235 230 231 235 246 258 265 268 271 273 275 276 277 277 278 280 282 284 287 287 286 292 297 300 308 323 340 346 333 323 319 314 307 285 289 294 292 315 339 343 342 332 318
197 196 196 199 201 202 204 205 203 200 197 198 199 202 202 204 204 204 204 204 205 207 210 211 211 212 215 217 219 221 225 229 234 239 243 244 245 245 243 241 238 237 235 236 240 245 250 257 260 262 265 267 269 270 271 272 273 276 278 279 280 281 279 278 277 276 274 274 288 312 324 316 309 305 302 287 278 280 282 296 317 328 334 339 332
198 197 196 198 201 202 203 203 200 195 195 199 205 207 206 205 204 204 204 203 203 203 205 206 204 205 207 209 213 215 220 226 229 232 238 240 243 245 247 246 244 243 241 242 244 246 250 256 261 263 264 265 267 268 269 270 270 272 274 275 277 278 278 278 276 270 265 265 269 274 283 289 294 297 289 285 283 282 287 293 297 304 315 324 324
199 197 197 199 200 202 203 201 197 195 199 205 212 215 213 208 204 203 203 202 202 203 203 201 198 197 201 204 206 211 217 224 229 234 240 245 250 253 255 255 254 253 252 253 254 255 256 259 263 266 268 268 270 271 272 272 273 274 274 275 275 276 277 278 276 273 268 265 266 265 264 263 270 281 278 277 283 287 292 294 292 296 303 308 312
200 197 197 200 200 202 201 199 198 200 205 210 216 216 213 210 207 203 202 203 203 204 202 201 201 200 203 206 208 213 218 223 229 233 239 245 249 252 253 255 256 257 259 262 264 267 267 267 268 269 272 274 276 277 277 278 278 278 278 278 277 276 276 276 274 271 267 264 264 264 261 259 258 262 265 268 275 282 289 294 295 297 296 295 297
202 198 197 200 200 200 200 199 200 205 209 214 218 213 209 207 205 202 200 202 201 201 201 202 202 204 205 206 210 213 219 225 228 231 233 237 240 245 248 250 253 256 261 265 270 274 277 278 277 277 278 279 279 280 280 281 281 280 279 278 277 276 274 273 272 269 265 262 261 261 258 256 253 252 253 255 264 272 282 291 295 297 298 296 293
208 203 200 201 201 201 200 201 203 207 210 214 216 210 206 203 202 200 198 199 198 199 198 198 194 193 192 191 194 196 205 211 222 228 231 235 236 239 237 239 239 242 248 254 265 273 285 289 293 296 295 293 290 288 286 285 286 284 283 281 280 277 275 271 268 265 262 260 256 256 254 252 248 244 244 246 255 265 275 282 282 287 294 296 297
216 211 204 203 204 204 204 205 208 208 209 212 211 206 204 201 200 198 197 196 195 195 191 187 182 178 175 174 174 173 176 173 187 201 216 235 227 222 198 183 171 159 153 145 138 125 73 358 347 337 334 331 328 326 317 309 303 297 295 294 293 291 285 276 270 265 259 256 252 250 248 247 245 241 240 240 243 249 256 265 268 274 285 290 291
220 217 211 208 207 207 207 209 209 209 208 207 205 202 202 199 199 197 195 193 190 187 183 179 174 172 171 170 170 168 168 165 167 174 180 180 171 158 143 131 121 114 108 103 96 88 64 19 345 336 331 328 329 329 329 326 322 316 312 313 314 312 304 292 282 272 262 257 251 248 246 244 244 242 240 238 237 239 242 253 263 271 279 280 279
220 219 217 213 211 210 210 211 211 209 207 205 203 200 200 197 196 195 192 189 186 183 179 176 174 172 172 171 174 174 171 171 169 171 171 167 163 158 153 148 139 130 116 95 36 355 335 328 322 321 319 317 318 318 320 320 318 318 318 320 319 316 310 300 292 280 268 259 253 248 245 243 243 243 241 238 235 237 244 256 266 274 279 276 271
221 218 217 216 216 214 213 213 212 210 209 207 204 203 201 197 195 193 191 188 186 183 181 178 177 175 175 175 176 176 174 171 170 171 170 169 168 167 167 163 162 162 170 282 314 321 321 324 327 328 328 326 324 324 322 320 316 316 316 314 312 308 304 296 291 282 271 260 254 249 245 242 240 240 239 237 233 231 239 256 262 266 274 275 271
225 221 217 217 218 217 216 215 216 214 214 211 208 207 204 200 196 193 191 189 187 186 184 182 182 181 180 181 180 180 177 174 173 173 173 174 174 174 176 174 178 181 203 279 314 322 331 333 338 338 339 339 337 337 334 332 329 323 319 313 309 306 301 295 288 279 272 262 254 249 246 242 237 235 233 233 232 226 227 238 240 242 252 260 265
228 226 220 219 220 220 219 218 219 218 218 216 213 212 208 204 199 196 193 192 191 189 188 187 186 185 185 186 187 187 184 184 183 184 184 183 184 184 187 191 199 202 227 259 297 314 330 334 339 341 341 342 340 339 336 333 331 326 323 318 313 309 302 297 290 281 273 263 254 249 248 246 241 237 233 232 232 229 226 228 227 230 239 249 257
230 229 224 222 221 222 222 221 221 220 219 218 216 214 211 208 202 200 198 197 195 193 191 190 188 188 189 190 190 191 189 194 197 201 202 202 203 204 211 213 227 241 260 283 305 319 329 333 335 338 338 338 337 335 333 329 326 322 320 318 314 310 305 300 292 283 275 266 258 252 248 249 248 247 244 243 243 239 236 236 237 237 242 249 256
231 230 227 225 224 224 224 224 223 221 221 219 218 215 213 211 206 203 202 201 200 197 195 192 191 191 193 197 197 198 198 207 210 214 216 218 221 221 226 230 241 259 278 297 310 319 324 329 330 331 332 332 333 332 331 328 324 320 316 314 311 307 304 299 292 286 281 275 267 259 253 249 248 250 251 253 253 251 248 247 249 250 252 255 259
234 232 230 227 227 227 226 225 225 223 223 222 220 217 214 213 210 206 205 205 204 201 199 196 195 196 200 207 210 218 224 232 234 236 237 235 238 240 248 254 263 278 293 305 314 319 321 324 324 324 325 325 325 326 325 323 321 318 314 310 306 303 300 297 293 289 285 280 275 269 262 255 251 249 249 250 251 252 251 250 249 251 253 255 258
239 238 237 234 231 230 229 229 227 226 225 224 222 219 217 215 213 210 207 208 207 205 203 201 200 201 207 213 219 227 237 246 250 252 254 253 256 263 270 276 285 295 304 313 317 319 320 319 318 317 317 317 318 317 317 317 315 313 310 306 301 296 294 292 290 287 284 281 279 276 272 267 263 259 256 255 254 255 254 253 250 248 248 248 250
249 248 245 240 236 233 232 232 230 229 228 227 226 223 220 217 217 215 211 210 210 208 207 205 203 205 210 214 218 226 237 246 252 255 256 260 264 269 273 281 289 298 304 310 312 313 313 312 311 310 310 310 309 310 310 310 310 309 307 304 299 294 290 287 285 284 283 281 280 279 278 277 274 271 268 266 265 264 264 263 261 257 254 251 249
255 250 246 242 239 236 235 234 232 231 230 230 229 227 224 221 220 219 216 213 213 212 210 208 205 208 211 212 216 223 235 244 252 255 256 260 263 267 272 278 285 291 296 300 303 304 304 304 303 302 302 302 303 303 304 306 307 306 305 303 300 296 292 289 286 283 281 281 281 280 280 280 279 278 276 275 273 272 272 272 272 271 269 265 261
249 248 248 246 243 240 238 236 235 234 232 232 231 230 228 225 224 223 221 217 216 215 213 210 208 210 212 213 219 225 234 242 249 252 254 256 258 263 267 272 278 283 286 290 293 295 296 297 298 298 299 299 301 302 303 306 308 308 306 303 300 297 295 292 289 286 282 280 280 280 281 280 279 279 279 279 279 279 278 278 279 278 278 275 273
250 251 251 248 245 241 239 238 237 236 234 232 231 230 229 227 227 226 225 222 219 218 216 213 213 215 217 218 224 229 234 240 245 248 250 252 254 259 262 268 273 277 280 283 286 288 291 293 295 297 299 301 303 306 308 310 311 311 308 304 300 297 296 294 291 289 285 282 279 279 279 279 279 278 279 280 280 280 280 281 281 281 280 280 280
252 251 250 248 246 242 239 238 237 237 235 233 232 230 229 228 228 228 226 224 223 223 221 218 219 221 221 223 226 230 234 239 242 244 246 247 250 254 259 264 269 273 276 279 281 284 287 290 294 297 300 303 305 309 311 313 313 312 308 303 299 296 294 293 292 290 288 286 281 278 277 276 276 276 276 278 277 278 278 280 282 283 284 285 286
249 249 249 249 248 245 241 240 239 238 236 234 233 232 230 229 229 229 228 226 226 225 224 222 223 224 224 225 227 231 235 238 241 242 243 244 247 251 256 261 265 269 271 274 277 280 285 289 293 297 300 303 307 311 314 314 313 311 307 301 297 294 292 292 291 291 290 288 285 282 280 277 275 274 274 275 274 274 275 276 277 279 282 284 285
250 248 248 249 249 247 244 243 241 239 238 236 234 233 232 231 231 231 229 229 228 226 225 224 225 226 226 227 228 232 235 238 241 241 241 242 244 249 254 258 262 265 267 270 272 276 282 286 291 296 300 303 306 310 314 315 313 312 308 303 299 296 294 294 293 292 291 290 288 286 283 283 281 280 278 274 269 266 265 266 267 269 272 275 277
250 248 248 249 247 247 246 244 242 240 239 238 237 235 234 234 234 233 231 230 229 227 226 226 227 227 228 228 230 232 235 238 240 240 240 241 243 247 251 255 258 261 262 265 269 274 279 284 289 294 298 302 305 308 312 314 314 312 309 306 303 300 298 296 295 294 294 293 292 290 288 289 289 286 282 273 265 260 261 263 265 267 270 274 275
251 251 251 249 247 247 247 245 242 241 240 239 238 237 236 235 234 233 232 231 229 229 228 227 228 229 229 229 230 233 236 238 239 240 239 239 242 245 249 252 254 257 258 262 267 272 278 285 289 293 298 301 304 308 312 314 314 312 309 308 305 304 304 302 300 297 297 297 295 294 289 284 283 279 274 269 263 261 262 265 266 269 274 280 284
256 257 253 251 251 249 248 246 243 241 240 239 238 238 237 236 235 234 233 232 230 229 229 228 229 230 231 231 232 234 236 238 239 239 239 238 241 243 247 249 251 253 255 260 265 272 280 287 292 295 297 300 304 307 310 313 313 312 310 310 308 308 308 307 304 302 300 299 296 290 273 254 248 249 262 268 269 272 277 277 274 276 283 290 295
258 256 255 255 255 252 249 247 244 243 242 239 238 237 237 235 234 233 232 232 231 230 229 228 229 230 231 232 233 235 237 238 238 238 238 238 240 242 245 246 248 249 252 258 264 273 281 288 292 294 295 297 299 302 307 310 311 311 311 311 311 310 310 308 305 306 305 301 297 273 220 198 195 204 257 273 280 297 303 294 285 280 281 286 290
256 254 257 260 257 254 251 248 246 245 243 240 237 236 236 235 233 232 231 231 230 230 230 228 229 230 231 233 234 235 237 238 237 237 237 237 239 241 243 244 245 246 250 256 263 272 281 287 289 291 293 295 297 300 303 306 309 310 312 313 312 311 309 306 306 310 309 303 297 159 157 166 192 246 264 260 271 302 305 297 290 283 278 277 279
257 255 257 258 256 254 251 249 247 246 244 242 239 236 235 234 233 231 230 230 230 230 230 228 229 230 231 233 234 235 236 237 236 235 235 236 237 238 240 241 242 244 248 253 261 271 280 286 289 291 294 296 299 301 302 305 308 309 313 313 310 310 306 303 306 309 303 280 176 101 20 282 283 285 278 287 316 324 319 311 306 299 293 286 282
261 257 254 256 256 254 251 250 248 246 245 243 239 236 234 234 232 230 229 229 229 230 229 228 228 229 230 232 234 235 235 235 234 234 234 234 235 236 237 238 238 240 244 251 259 270 281 288 292 294 296 299 300 301 301 302 305 307 311 311 308 308 304 302 304 302 281 257 288 335 329 323 322 323 331 339 342 338 332 324 321 316 309 301 293
262 257 254 256 256 255 253 251 248 245 243 241 240 236 234 232 231 229 228 229 229 230 229 228 228 228 230 231 232 234 234 233 233 233 233 233 233 233 234 234 235 238 242 249 258 269 280 288 294 297 298 299 298 299 300 301 303 305 307 308 308 307 303 300 295 285 264 263 311 332 333 341 345 343 344 346 347 342 337 333 331 327 322 314 306
261 258 255 254 254 254 251 249 246 243 240 239 238 235 232 230 229 227 227 228 228 229 228 228 228 228 229 229 231 233 233 233 233 233 232 232 232 232 232 232 234 237 242 249 258 267 278 288 296 299 298 298 297 298 300 302 305 306 308 311 311 307 301 298 286 262 268 295 322 330 338 348 345 344 347 347 345 340 338 336 334 331 326 321 315
259 257 254 253 252 251 248 245 243 241 238 235 233 231 229 226 225 225 225 226 226 227 227 227 227 227 227 228 230 231 232 233 232 232 232 232 232 232 232 232 234 238 242 248 255 264 277 291 298 299 298 298 298 300 302 304 306 307 307 310 314 310 302 297 264 251 321 325 328 326 337 343 342 343 345 343 339 337 337 335 332 329 327 324 320
256 255 253 252 252 250 247 244 241 239 236 235 233 230 229 226 226 226 225 225 225 225 226 226 227 226 226 228 230 230 231 232 232 232 232 232 232 232 231 233 235 237 241 246 253 263 277 292 299 299 298 298 300 302 304 306 309 310 306 304 314 318 312 293 211 331 337 333 325 322 333 338 340 342 341 340 337 337 337 334 330 329 327 327 324
256 255 254 254 252 248 246 244 241 239 237 236 234 233 233 233 233 233 230 227 226 226 226 227 227 226 226 227 228 230 230 231 232 232 232 232 233 233 233 233 235 236 240 244 251 262 276 291 299 300 298 298 301 302 305 311 317 323 320 315 317 326 327 282 221 329 338 335 328 331 332 335 335 336 338 339 337 337 336 333 331 331 330 331 330
258 256 254 252 248 246 245 242 240 239 237 236 235 235 236 237 237 237 234 230 228 229 229 229 229 228 227 227 227 229 230 231 232 232 233 233 234 233 233 233 234 236 238 242 249 260 274 291 300 302 300 299 302 304 309 315 323 332 333 328 325 332 344 270 279 320 331 316 334 336 333 332 332 334 335 335 333 332 332 331 331 332 332 332 331
254 251 249 246 245 245 244 241 239 238 236 235 235 234 234 234 233 233 234 233 231 230 230 230 230 229 228 228 228 228 229 231 231 232 233 233 233 232 231 232 233 234 236 240 248 258 274 291 301 302 300 301 304 308 312 318 327 335 337 335 332 334 343 322 315 318 317 315 330 335 334 331 331 333 334 332 330 329 329 330 332 332 332 332 331
251 249 247 245 243 244 243 240 239 238 236 234 232 231 231 230 229 227 228 229 230 229 229 229 228 228 229 228 228 229 229 230 231 232 232 232 231 231 230 231 231 233 235 239 246 257 272 289 299 301 301 302 305 309 313 320 329 336 339 338 335 326 321 328 327 321 310 314 325 334 335 332 331 331 332 330 329 328 328 330 330 330 331 330 329
254 251 247 244 242 242 241 239 238 236 234 232 230 230 231 231 230 228 227 226 226 226 227 228 228 228 229 228 228 229 229 230 230 231 231 231 230 230 230 230 230 232 233 237 244 255 270 285 295 300 301 301 303 306 308 318 327 334 337 334 331 323 322 330 332 321 315 312 318 334 336 332 330 331 332 330 328 327 329 329 328 328 330 329 328
254 248 243 239 238 239 239 238 236 235 233 231 230 230 231 232 234 234 234 232 229 228 228 229 230 231 231 230 228 229 229 230 230 231 230 230 229 229 228 229 229 230 232 237 243 252 264 276 288 296 299 298 300 302 303 311 323 329 332 329 327 326 326 330 328 324 322 315 314 326 334 332 331 332 331 329 327 327 329 328 326 328 329 327 328
250 243 238 235 236 237 237 236 235 234 233 231 230 231 232 234 236 237 237 238 236 236 234 233 233 233 232 232 231 230 230 230 230 231 230 229 228 228 227 227 227 229 231 236 241 249 259 269 280 288 293 295 295 298 300 303 315 323 326 324 323 324 325 328 324 322 319 314 315 321 325 326 327 330 331 327 325 328 329 328 327 327 326 326 328
245 241 238 236 235 235 235 234 233 233 232 231 231 232 234 236 238 238 238 239 239 239 238 237 236 234 233 232 232 231 231 230 230 230 230 229 228 227 227 226 227 229 231 235 239 246 255 264 273 282 289 291 291 294 295 298 308 317 319 318 319 320 322 324 319 311 305 304 311 319 323 323 320 323 332 329 327 330 330 330 329 327 325 326 327
242 239 236 234 234 234 233 232 232 232 232 231 232 233 235 236 238 238 239 239 238 237 238 238 238 237 235 233 232 232 232 231 230 229 229 228 227 227 227 227 228 229 231 233 237 243 250 259 268 279 286 288 290 292 292 294 303 311 313 314 315 316 318 319 310 300 296 294 299 309 319 322 318 320 330 329 327 330 331 330 329 326 326 327 326
237 235 233 232 233 234 233 232 232 232 232 232 233 234 235 236 237 238 239 240 239 238 238 237 237 237 237 236 234 233 233 232 231 230 230 228 227 227 227 227 228 229 231 232 236 241 246 254 265 275 283 288 289 290 290 291 298 305 308 310 311 312 314 317 313 301 299 300 298 302 311 317 315 317 325 326 324 326 329 329 327 326 326 326 325
Height
1547 1548 1550 1551 1552 1553 1554 1555 1556 1556 1556 1557 1557 1557 1558 1558 1558 1559 1559 1559 1559 1560 1560 1560 1560 1561 1561 1561 1561 1562 1562 1562 1562 1562 1562 1562 1562 1562 1562 1562 1562 1562 1563 1563 1563 1563 1563 1563 1563 1563 1563 1563 1563 1563 1563 1563 1563 1563 1563 1562 1562 1561 1561 1561 1561 1561 1560 1560 1560 1559 1559 1558 1559 1559 1559 1560 1560 1561 1561 1561 1561 1561 1561 1561 1561
1545 1546 1548 1550 1551 1552 1553 1554 1555 1555 1555 1556 1556 1556 1557 1557 1557 1558 1558 1558 1559 1559 1559 1559 1559 1560 1560 1560 1561 1561 1561 1561 1562 1562 1562 1562 1562 1562 1562 1562 1562 1562 1562 1562 1562 1563 1563 1563 1563 1563 1563 1563 1563 1563 1563 1563 1563 1563 1563 1562 1562 1561 1561 1560 1560 1560 1560 1560 1559 1559 1558 1558 1558 1558 1559 1559 1560 1560 1560 1561 1561 1561 1561 1561 1560
1544 1545 1546 1548 1549 1551 1552 1553 1553 1554 1554 1555 1555 1555 1556 1556 1557 1557 1557 1558 1558 1558 1558 1559 1559 1559 1559 1559 1560 1560 1561 1561 1561 1561 1562 1561 1562 1562 1562 1562 1562 1562 1562 1562 1562 1563 1562 1562 1562 1562 1563 1563 1563 1563 1563 1562 1562 1562 1562 1562 1562 1561 1561 1560 1560 1559 1559 1559 1559 1558 1558 1558 1558 1558 1559 1559 1559 1560 1560 1560 1560 1560 1560 1560 1560
1544 1545 1545 1547 1548 1549 1550 1551 1552 1553 1553 1553 1554 1554 1555 1555 1556 1556 1556 1557 1557 1557 1558 1558 1558 1558 1558 1559 1559 1559 1560 1560 1560 1560 1561 1561 1561 1561 1561 1561 1561 1561 1562 1562 1562 1562 1562 1562 1562 1562 1562 1562 1562 1562 1562 1561 1561 1561 1561 1561 1561 1561 1561 1560 1560 1559 1559 1559 1558 1558 1558 1558 1558 1558 1559 1559 1559 1559 1559 1559 1559 1560 1560 1560 1560
1543 1544 1545 1546 1547 1548 1549 1550 1551 1552 1552 1553 1553 1554 1554 1554 1555 1555 1556 1556 1556 1557 1557 1557 1557 1557 1557 1558 1558 1558 1559 1559 1559 1559 1559 1560 1560 1560 1560 1560 1560 1560 1561 1562 1562 1562 1562 1561 1560 1561 1561 1561 1561 1560 1560 1560 1560 1560 1560 1560 1560 1560 1560 1560 1559 1559 1559 1558 1558 1558 1558 1558 1558 1559 1559 1559 1559 1559 1559 1559 1559 1559 1559 1560 1560
1542 1543 1544 1545 1546 1547 1548 1549 1550 1551 1551 1552 1552 1553 1553 1553 1554 1554 1554 1555 1555 1555 1555 1556 1556 1556 1556 1556 1557 1557 1557 1557 1557 1558 1558 1558 1559 1559 1559 1559 1559 1559 1560 1560 1560 1560 1560 1559 1559 1559 1560 1560 1559 1559 1559 1559 1559 1559 1559 1559 1559 1559 1559 1559 1559 1558 1558 1558 1558 1558 1558 1558 1558 1559 1559 1559 1559 1558 1558 1558 1558 1558 1559 1559 1559
1541 1542 1543 1544 1545 1546 1547 1548 1549 1550 1550 1551 1551 1552 1552 1553 1553 1553 1553 1554 1554 1554 1554 1554 1554 1554 1555 1555 1556 1556 1556 1556 1556 1556 1557 1557 1557 1557 1558 1558 1558 1558 1558 1558 1558 1558 1558 1557 1558 1558 1558 1559 1558 1558 1558 1558 1558 1558 1558 1558 1558 1558 1558 1558 1558 1558 1557 1557 1557 1557 1557 1557 1558 1558 1559 1559 1559 1558 1558 1558 1558 1558 1558 1558 1558
1540 1541 1542 1543 1544 1545 1546 1547 1548 1549 1549 1550 1550 1551 1551 1552 1552 1552 1552 1553 1553 1553 1553 1553 1553 1553 1554 1554 1554 1555 1555 1555 1555 1555 1556 1556 1556 1556 1556 1556 1556 1556 1556 1556 1556 1556 1556 1556 1556 1557 1557 1557 1557 1557 1557 1557 1557 1557 1557 1556 1557 1557 1557 1557 1557 1557 1556 1556 1556 1556 1556 1557 1557 1557 1558 1558 1558 1557 1557 1558 1558 1557 1557 1557 1557
1539 1540 1541 1542 1543 1544 1545 1546 1547 1548 1548 1549 1549 1550 1550 1550 1551 1551 1551 1552 1552 1552 1552 1552 1552 1553 1553 1553 1553 1554 1554 1554 1554 1555 1555 1555 1555 1555 1555 1555 1555 1555 1555 1555 1555 1555 1555 1555 1555 1555 1556 1556 1556 1556 1556 1556 1555 1555 1555 1555 1555 1555 1555 1555 1555 1555 1555 1555 1555 1556 1556 1556 1556 1556 1557 1557 1557 1556 1556 1556 1557 1557 1556 1556 1556
1538 1539 1540 1541 1543 1543 1544 1545 1546 1547 1547 1547 1548 1548 1549 1549 1549 1550 1550 1550 1550 1551 1551 1551 1552 1552 1552 1553 1553 1553 1553 1554 1554 1554 1554 1554 1554 1554 1554 1554 1553 1553 1553 1553 1553 1554 1554 1554 1554 1554 1554 1554 1554 1554 1554 1554 1554 1554 1554 1554 1554 1554 1553 1553 1554 1554 1554 1554 1554 1555 1555 1555 1555 1555 1556 1556 1556 1556 1555 1555 1555 1555 1555 1555 1555
1537 1538 1539 1540 1541 1542 1543 1544 1545 1545 1546 1546 1547 1547 1547 1548 1548 1549 1549 1549 1550 1550 1550 1551 1551 1551 1552 1552 1552 1553 1553 1553 1553 1553 1553 1553 1553 1553 1553 1553 1553 1552 1552 1552 1552 1552 1553 1553 1553 1553 1553 1553 1553 1553 1553 1553 1552 1552 1552 1552 1552 1551 1551 1551 1552 1552 1552 1552 1553 1553 1553 1553 1554 1554 1554 1554 1554 1555 1554 1554 1554 1554 1554 1554 1554
1536 1537 1538 1539 1540 1541 1542 1543 1543 1544 1544 1545 1545 1546 1546 1547 1547 1548 1548 1549 1549 1550 1550 1550 1551 1551 1551 1551 1552 1552 1552 1552 1552 1553 1553 1553 1553 1553 1552 1552 1552 1552 1552 1552 1551 1552 1552 1552 1552 1552 1552 1552 1552 1552 1552 1551 1551 1550 1550 1550 1549 1549 1549 1549 1549 1550 1550 1550 1551 1551 1551 1551 1552 1552 1552 1553 1553 1553 1554 1553 1553 1553 1553 1553 1553
1535 1536 1537 1538 1539 1540 1541 1542 1542 1543 1544 1544 1545 1545 1546 1546 1547 1547 1548 1548 1549 1549 1550 1550 1550 1550 1550 1551 1551 1551 1551 1552 1552 1552 1552 1552 1552 1552 1552 1552 1551 1551 1551 1551 1551 1551 1551 1551 1551 1551 1551 1551 1551 1551 1551 1550 1550 1549 1549 1548 1548 1547 1547 1547 1547 1547 1547 1548 1548 1549 1549 1549 1549 1550 1550 1551 1551 1552 1552 1553 1552 1552 1552 1551 1551
1535 1535 1536 1537 1538 1539 1540 1541 1541 1542 1543 1543 1544 1544 1545 1545 1546 1546 1547 1548 1548 1548 1549 1549 1549 1550 1550 1550 1550 1550 1550 1551 1551 1551 1551 1551 1551 1551 1551 1550 1550 1550 1550 1551 1551 1551 1551 1551 1551 1551 1551 1551 1551 1551 1550 1550 1549 1548 1548 1547 1547 1546 1546 1546 1545 1545 1546 1546 1546 1546 1547 1547 1547 1547 1548 1549 1549 1550 1550 1551 1551 1550 1550 1550 1550
1533 1535 1535 1536 1537 1537 1538 1539 1540 1541 1542 1542 1543 1543 1543 1544 1544 1545 1546 1546 1547 1547 1548 1548 1548 1548 1549 1549 1549 1549 1549 1550 1550 1550 1550 1550 1550 1549 1549 1549 1549 1549 1550 1550 1550 1550 1551 1551 1551 1551 1551 1550 1550 1550 1549 1549 1548 1548 1547 1547 1546 1546 1545 1545 1544 1544 1544 1544 1544 1544 1544 1545 1545 1546 1546 1547 1547 1548 1548 1548 1548 1548 1548 1548 1548
1532 1533 1534 1535 1535 1536 1537 1538 1539 1540 1540 1541 1541 1542 1542 1543 1543 1543 1544 1544 1545 1545 1546 1547 1547 1548 1548 1548 1548 1548 1549 1549 1549 1549 1549 1549 1549 1549 1549 1549 1549 1549 1549 1549 1549 1550 1550 1550 1550 1550 1550 1550 1549 1549 1548 1548 1547 1547 1546 1546 1545 1545 1545 1544 1544 1543 1543 1543 1542 1542 1543 1543 1544 1544 1544 1545 1545 1545 1546 1546 1546 1547 1547 1547 1546
1530 1531 1532 1534 1534 1535 1536 1537 1537 1538 1539 1539 1540 1540 1541 1541 1542 1542 1543 1543 1544 1544 1545 1545 1546 1546 1547 1547 1547 1547 1548 1548 1548 1548 1548 1548 1548 1548 1548 1548 1548 1548 1549 1549 1549 1549 1549 1548 1548 1548 1548 1548 1548 1547 1547 1547 1546 1546 1545 1544 1544 1544 1544 1544 1543 1543 1542 1542 1541 1541 1541 1541 1542 1542 1542 1543 1543 1543 1544 1544 1545 1546 1546 1545 1545
1529 1530 1531 1532 1533 1533 1534 1535 1535 1536 1537 1538 1538 1539 1539 1540 1540 1541 1541 1542 1542 1543 1543 1544 1545 1545 1546 1546 1546 1546 1547 1547 1547 1547 1547 1548 1548 1548 1548 1548 1548 1548 1548 1548 1548 1548 1548 1548 1547 1547 1547 1546 1546 1545 1545 1545 1544 1544 1543 1543 1543 1542 1542 1542 1542 1542 1542 1541 1541 1540 1540 1540 1540 1540 1540 1540 1541 1541 1541 1541 1542 1543 1543 1543 1543
1527 1528 1529 1530 1531 1532 1532 1533 1533 1534 1535 1536 1537 1537 1538 1538 1539 1539 1540 1541 1541 1542 1542 1542 1543 1544 1544 1545 1545 1545 1546 1546 1546 1546 1546 1547 1547 1547 1547 1548 1548 1548 1548 1548 1548 1548 1548 1547 1547 1546 1546 1545 1545 1544 1544 1543 1543 1542 1542 1542 1541 1541 1541 1541 1541 1541 1541 1540 1540 1540 1539 1539 1539 1538 1538 1538 1539 1539 1539 1539 1539 1539 1540 1540 1540
1524 1525 1526 1527 1528 1529 1530 1531 1531 1532 1533 1534 1535 1535 1536 1536 1537 1538 1538 1539 1539 1540 1540 1541 1541 1542 1543 1543 1544 1544 1544 1545 1545 1545 1545 1546 1546 1546 1546 1547 1547 1547 1547 1547 1547 1547 1547 1546 1546 1546 1545 1544 1544 1543 1543 1542 1542 1541 1541 1540 1540 1540 1540 1539 1539 1539 1539 1539 1539 1539 1539 1538 1538 1537 1537 1537 1537 1537 1537 1537 1537 1538 1538 1538 1538
1521 1522 1523 1525 1526 1526 1527 1528 1529 1530 1531 1532 1532 1533 1534 1534 1535 1536 1537 1537 1538 1538 1538 1539 1539 1540 1541 1541 1542 1542 1543 1543 1544 1544 1544 1545 1545 1545 1545 1545 1546 1546 1546 1545 1545 1545 1545 1544 1544 1544 1543 1543 1542 1542 1541 1541 1540 1540 1540 1539 1539 1539 1538 1538 1538 1538 1538 1538 1538 1538 1538 1537 1537 1536 1536 1535 1535 1536 1536 1536 1536 1536 1536 1536 1536
1518 1519 1520 1521 1522 1523 1525 1526 1527 1528 1529 1529 1530 1531 1531 1532 1533 1533 1534 1535 1536 1536 1536 1537 1538 1538 1539 1539 1540 1540 1541 1541 1542 1543 1543 1544 1544 1544 1544 1544 1544 1544 1544 1543 1543 1543 1543 1542 1542 1542 1541 1541 1541 1540 1540 1539 1539 1538 1538 1538 1538 1537 1537 1537 1537 1537 1537 1537 1536 1536 1536 1536 1535 1535 1534 1534 1534 1534 1534 1535 1535 1535 1535 1534 1534
1515 1516 1517 1518 1519 1520 1521 1523 1524 1525 1526 1527 1528 1528 1529 1529 1531 1531 1532 1533 1534 1534 1535 1535 1536 1536 1537 1538 1538 1539 1539 1540 1540 1541 1542 1542 1542 1543 1543 1542 1542 1542 1542 1542 1541 1541 1541 1541 1540 1540 1540 1540 1539 1539 1539 1538 1538 1537 1537 1537 1536 1536 1536 1536 1536 1536 1536 1535 1535 1535 1534 1534 1534 1534 1533 1533 1532 1532 1533 1533 1533 1533 1533 1533 1533
1512 1514 1515 1515 1516 1517 1518 1520 1521 1522 1523 1525 1525 1526 1526 1527 1528 1529 1530 1531 1532 1532 1533 1533 1534 1534 1535 1536 1537 1537 1538 1539 1539 1540 1540 1541 1541 1541 1541 1541 1541 1541 1541 1540 1540 1540 1540 1540 1540 1540 1539 1539 1539 1538 1538 1537 1537 1536 1536 1535 1535 1535 1535 1534 1534 1534 1534 1534 1533 1533 1533 1533 1532 1532 1532 1531 1531 1531 1531 1531 1531 1531 1531 1532 1532
1511 1511 1511 1512 1513 1514 1515 1517 1518 1519 1520 1521 1522 1523 1524 1524 1525 1526 1527 1528 1529 1530 1531 1531 1532 1533 1533 1534 1535 1536 1536 1537 1538 1538 1539 1539 1540 1540 1540 1540 1540 1540 1540 1540 1540 1540 1540 1539 1539 1539 1539 1538 1538 1538 1537 1536 1536 1535 1534 1534 1534 1533 1533 1533 1533 1533 1532 1532 1532 1532 1531 1531 1531 1531 1530 1530 1530 1530 1529 1529 1529 1530 1530 1530 1530
1507 1507 1507 1508 1510 1511 1512 1514 1515 1516 1517 1518 1520 1521 1521 1522 1523 1524 1525 1526 1527 1528 1528 1529 1530 1531 1532 1532 1533 1534 1535 1535 1536 1537 1538 1538 1539 1539 1539 1539 1540 1540 1540 1540 1540 1539 1539 1539 1539 1538 1538 1538 1537 1537 1536 1535 1535 1534 1533 1533 1532 1532 1532 1531 1531 1531 1531 1531 1530 1530 1530 1529 1529 1529 1529 1528 1528 1528 1527 1527 1528 1528 1528 1528 1528
1503 1503 1504 1505 1507 1508 1509 1510 1511 1512 1514 1515 1517 1518 1518 1520 1521 1522 1523 1524 1525 1525 1526 1527 1528 1529 1530 1530 1531 1532 1533 1534 1535 1536 1536 1537 1537 1538 1538 1539 1539 1539 1539 1539 1539 1539 1539 1538 1538 1538 1537 1537 1536 1535 1534 1534 1533 1533 1532 1531 1531 1530 1530 1530 1529 1529 1529 1529 1529 1528 1528 1528 1528 1528 1527 1527 1526 1526 1526 1525 1525 1525 1525 1525 1526
1500 1501 1501 1502 1503 1505 1506 1507 1508 1509 1511 1512 1513 1514 1516 1517 1518 1519 1521 1522 1523 1523 1524 1526 1526 1527 1528 1528 1529 1530 1531 1532 1533 1534 1535 1535 1536 1537 1537 1538 1538 1538 1538 1539 1538 1538 1538 1537 1537 1537 1536 1535 1535 1534 1533 1532 1532 1532 1531 1530 1530 1529 1529 1528 1528 1527 1527 1527 1527 1527 1526 1526 1526 1526 1526 1525 1525 1524 1524 1524 1523 1523 1523 1523 1523
1496 1498 1499 1499 1500 1501 1503 1504 1505 1506 1508 1509 1510 1512 1513 1514 1515 1516 1518 1519 1521 1522 1523 1524 1524 1524 1525 1526 1527 1528 1530 1531 1531 1532 1533 1534 1535 1535 1536 1536 1536 1537 1537 1537 1537 1537 1537 1536 1536 1536 1535 1534 1534 1533 1532 1531 1531 1530 1530 1529 1529 1528 1527 1527 1526 1526 1525 1525 1525 1525 1525 1525 1525 1525 1525 1524 1524 1523 1523 1522 1522 1522 1521 1521 1521
1493 1496 1496 1496 1497 1498 1499 1500 1502 1503 1505 1506 1507 1509 1510 1511 1512 1514 1516 1517 1518 1520 1521 1521 1522 1522 1523 1525 1526 1527 1528 1529 1530 1530 1531 1532 1533 1534 1534 1535 1535 1535 1535 1535 1535 1535 1535 1535 1535 1534 1534 1533 1533 1532 1531 1530 1530 1529 1529 1528 1528 1527 1526 1526 1525 1524 1524 1523 1523 1523 1523 1522 1523 1523 1523 1523 1522 1522 1521 1521 1521 1520 1520 1520 1520
1490 1492 1492 1493 1494 1495 1496 1497 1498 1500 1501 1503 1504 1506 1507 1508 1510 1512 1513 1515 1516 1517 1518 1519 1520 1520 1521 1523 1524 1525 1526 1527 1528 1529 1529 1530 1531 1532 1532 1533 1533 1533 1534 1534 1534 1534 1534 1533 1533 1533 1532 1532 1531 1531 1530 1529 1529 1528 1527 1527 1526 1526 1525 1524 1524 1523 1522 1522 1521 1521 1521 1521 1521 1521 1520 1521 1520 1520 1519 1519 1519 1519 1519 1518 1518
1486 1487 1489 1490 1491 1492 1493 1494 1495 1496 1497 1499 1501 1502 1504 1505 1507 1509 1510 1512 1514 1514 1515 1517 1517 1518 1519 1521 1522 1523 1524 1525 1526 1527 1528 1529 1529 1530 1530 1531 1531 1532 1532 1532 1532 1532 1532 1532 1531 1531 1531 1530 1529 1529 1529 1528 1527 1527 1526 1526 1525 1524 1524 1523 1522 1522 1521 1520 1520 1519 1519 1519 1519 1519 1519 1519 1519 1518 1517 1517 1517 1517 1517 1516 1516
1482 1484 1486 1487 1487 1488 1489 1490 1492 1492 1494 1495 1497 1499 1500 1502 1504 1506 1508 1509 1511 1512 1513 1514 1515 1516 1517 1519 1520 1521 1522 1523 1524 1525 1526 1527 1528 1528 1529 1529 1530 1530 1530 1530 1530 1530 1530 1530 1529 1529 1529 1528 1528 1528 1527 1527 1526 1525 1525 1524 1523 1523 1522 1522 1521 1520 1520 1519 1518 1518 1518 1517 1517 1518 1518 1518 1517 1516 1516 1515 1515 1515 1515 1514 1514
1479 1482 1482 1483 1484 1485 1486 1487 1488 1488 1490 1492 1494 1495 1496 1498 1500 1503 1505 1506 1508 1509 1511 1512 1513 1514 1515 1517 1518 1519 1520 1521 1522 1523 1524 1525 1526 1526 1527 1527 1528 1528 1528 1529 1529 1529 1529 1528 1528 1528 1527 1527 1526 1526 1526 1525 1525 1524 1523 1522 1522 1521 1521 1520 1519 1519 1518 1518 1517 1516 1516 1516 1516 1516 1517 1517 1516 1515 1514 1514 1513 1513 1513 1513 1513
1475 1477 1478 1479 1480 1481 1482 1483 1484 1485 1486 1487 1489 1491 1493 1494 1497 1499 1501 1503 1504 1506 1508 1510 1511 1512 1513 1514 1516 1517 1518 1519 1520 1521 1522 1523 1524 1524 1525 1525 1526 1526 1527 1527 1527 1527 1527 1527 1527 1526 1526 1525 1525 1525 1524 1524 1523 1523 1522 1521 1520 1519 1519 1518 1517 1517 1517 1516 1515 1515 1514 1514 1514 1515 1515 1515 1514 1513 1513 1512 1512 1512 1512 1512 1511
1470 1472 1474 1475 1475 1476 1478 1479 1480 1481 1482 1484 1486 1488 1489 1491 1493 1496 1498 1499 1501 1503 1505 1507 1508 1509 1511 1512 1513 1514 1515 1517 1518 1519 1520 1521 1522 1522 1523 1523 1524 1524 1525 1525 1525 1525 1526 1526 1525 1525 1524 1524 1523 1523 1522 1522 1521 1521 1520 1519 1518 1517 1517 1516 1516 1515 1515 1514 1514 1513 1513 1512 1513 1513 1512 1512 1511 1511 1510 1510 1510 1510 1510 1510 1510
1464 1467 1469 1470 1471 1471 1473 1474 1475 1477 1479 1480 1482 1484 1486 1488 1490 1493 1494 1496 1498 1500 1502 1504 1505 1506 1508 1509 1511 1512 1513 1514 1516 1517 1518 1519 1520 1520 1521 1521 1522 1522 1523 1523 1524 1524 1524 1524 1523 1523 1522 1522 1521 1521 1520 1520 1519 1519 1518 1517 1516 1515 1514 1513 1513 1513 1513 1512 1512 1511 1511 1510 1510 1510 1509 1509 1508 1508 1508 1507 1508 1508 1508 1508 1507
1460 1462 1465 1465 1466 1467 1468 1469 1471 1473 1475 1476 1478 1480 1483 1485 1487 1489 1491 1493 1495 1497 1499 1501 1502 1503 1505 1507 1508 1509 1510 1512 1513 1514 1515 1516 1517 1518 1518 1519 1520 1521 1521 1522 1522 1522 1522 1522 1521 1521 1520 1520 1519 1519 1518 1518 1517 1517 1516 1515 1514 1513 1512 1511 1511 1511 1510 1510 1509 1509 1508 1508 1507 1507 1506 1506 1506 1505 1505 1505 1505 1506 1506 1505 1504
1456 1457 1459 1461 1462 1462 1463 1465 1467 1469 1471 1474 1476 1478 1480 1482 1484 1486 1488 1489 1491 1493 1495 1497 1498 1500 1502 1504 1505 1507 1508 1509 1510 1512 1513 1514 1515 1515 1516 1517 1518 1519 1519 1520 1520 1520 1520 1520 1520 1519 1519 1518 1517 1517 1516 1516 1515 1515 1514 1513 1512 1511 1510 1509 1508 1508 1507 1507 1507 1507 1506 1506 1505 1504 1504 1503 1503 1503 1503 1503 1503 1504 1503 1502 1501
1451 1453 1455 1456 1457 1458 1458 1460 1462 1465 1468 1470 1472 1474 1476 1478 1481 1482 1483 1485 1487 1489 1491 1493 1494 1497 1499 1501 1503 1504 1505 1506 1508 1509 1510 1512 1513 1513 1514 1515 1516 1517 1517 1518 1518 1518 1518 1518 1518 1518 1517 1516 1515 1515 1514 1513 1513 1513 1512 1512 1510 1509 1508 1507 1506 1505 1505 1504 1504 1504 1504 1504 1503 1502 1502 1502 1501 1501 1500 1501 1501 1502 1501 1500 1499
1446 1448 1449 1451 1451 1452 1453 1454 1457 1460 1463 1465 1467 1469 1471 1474 1476 1477 1479 1480 1482 1484 1486 1489 1491 1493 1496 1498 1499 1501 1502 1503 1504 1506 1508 1509 1510 1511 1512 1513 1514 1514 1515 1515 1515 1516 1516 1516 1516 1516 1515 1515 1514 1513 1512 1511 1511 1510 1509 1509 1508 1507 1506 1505 1504 1503 1502 1502 1502 1502 1502 1501 1501 1500 1500 1499 1499 1499 1499 1499 1499 1499 1498 1497 1497
1441 1443 1443 1445 1446 1447 1448 1450 1453 1455 1457 1460 1463 1465 1467 1469 1471 1473 1476 1477 1479 1481 1483 1485 1488 1490 1493 1494 1496 1497 1498 1500 1501 1503 1505 1506 1507 1508 1509 1510 1511 1512 1512 1513 1513 1514 1514 1514 1514 1514 1514 1513 1512 1511 1510 1509 1509 1507 1505 1504 1504 1504 1503 1502 1502 1501 1501 1500 1500 1500 1500 1499 1498 1498 1498 1498 1497 1497 1497 1497 1497 1496 1495 1494 1494
1435 1438 1439 1440 1441 1442 1443 1445 1448 1450 1453 1456 1459 1462 1464 1467 1469 1472 1474 1475 1477 1479 1481 1483 1485 1487 1489 1491 1492 1494 1495 1497 1499 1500 1502 1503 1504 1506 1507 1508 1509 1509 1510 1510 1511 1512 1512 1512 1512 1512 1512 1511 1511 1509 1509 1508 1507 1506 1504 1502 1500 1500 1501 1501 1500 1500 1500 1499 1498 1498 1497 1496 1496 1495 1495 1495 1494 1494 1494 1494 1494 1493 1493 1492 1492
1430 1432 1433 1435 1436 1437 1438 1440 1443 1446 1449 1452 1456 1459 1462 1465 1467 1469 1472 1474 1475 1477 1479 1480 1482 1483 1485 1487 1488 1490 1491 1493 1495 1497 1498 1500 1501 1503 1504 1505 1506 1507 1508 1508 1509 1510 1510 1510 1511 1511 1510 1510 1509 1508 1507 1507 1506 1505 1504 1502 1499 1498 1499 1499 1497 1496 1496 1496 1495 1495 1494 1492 1492 1492 1492 1491 1491 1491 1491 1491 1490 1490 1490 1490 1489
1425 1426 1428 1429 1431 1433 1434 1437 1440 1442 1446 1449 1453 1456 1458 1461 1463 1466 1469 1470 1472 1474 1474 1474 1475 1478 1479 1482 1484 1486 1488 1490 1492 1494 1495 1497 1498 1499 1501 1502 1503 1504 1505 1506 1506 1507 1507 1508 1508 1509 1509 1508 1508 1507 1506 1505 1505 1504 1503 1502 1500 1498 1496 1496 1492 1490 1491 1493 1492 1491 1490 1489 1488 1489 1488 1488 1487 1487 1487 1487 1488 1487 1487 1487 1486
1419 1421 1423 1425 1427 1429 1431 1434 1437 1440 1443 1446 1450 1452 1454 1456 1458 1461 1463 1464 1466 1466 1466 1467 1469 1472 1474 1478 1481 1483 1485 1487 1489 1490 1492 1493 1495 1496 1498 1499 1500 1501 1502 1503 1504 1504 1505 1506 1506 1506 1507 1507 1506 1506 1505 1503 1503 1503 1502 1501 1501 1499 1495 1493 1491 1487 1484 1486 1488 1488 1486 1485 1484 1485 1485 1485 1484 1484 1485 1485 1485 1485 1485 1484 1484
1415 1417 1420 1422 1424 1426 1429 1431 1434 1437 1440 1443 1446 1448 1450 1453 1454 1457 1459 1461 1461 1460 1462 1464 1467 1470 1473 1476 1479 1480 1482 1484 1485 1487 1489 1491 1492 1493 1495 1496 1497 1498 1499 1500 1501 1502 1502 1503 1504 1504 1505 1505 1505 1504 1503 1503 1501 1501 1501 1500 1499 1499 1496 1494 1493 1489 1481 1477 1479 1483 1484 1483 1482 1482 1482 1482 1481 1481 1482 1482 1482 1482 1482 1481 1481
1411 1414 1416 1419 1421 1423 1426 1428 1431 1434 1437 1440 1442 1445 1447 1449 1452 1454 1456 1457 1458 1459 1462 1464 1466 1469 1472 1474 1476 1478 1479 1481 1482 1484 1486 1488 1489 1491 1492 1493 1494 1495 1497 1498 1499 1499 1500 1500 1501 1502 1502 1503 1503 1502 1502 1501 1500 1499 1499 1499 1498 1498 1497 1496 1494 1493 1489 1480 1474 1475 1477 1478 1480 1482 1481 1480 1479 1478 1478 1478 1478 1478 1478 1478 1478
1409 1411 1414 1417 1418 1420 1423 1425 1428 1431 1434 1437 1439 1441 1444 1446 1448 1450 1451 1453 1455 1458 1460 1462 1464 1466 1468 1471 1473 1475 1476 1478 1480 1482 1484 1486 1487 1488 1489 1490 1491 1492 1494 1495 1496 1497 1497 1498 1499 1499 1500 1500 1500 1500 1500 1499 1498 1497 1497 1497 1497 1496 1496 1496 1495 1494 1494 1489 1482 1478 1475 1472 1473 1477 1479 1477 1476 1477 1476 1475 1475 1474 1474 1474 1474
1407 1410 1412 1414 1416 1418 1421 1423 1425 1428 1430 1433 1436 1438 1441 1443 1444 1445 1447 1449 1452 1454 1456 1458 1461 1463 1464 1466 1469 1471 1473 1475 1477 1479 1481 1483 1485 1487 1488 1489 1489 1490 1491 1492 1492 1493 1494 1495 1496 1497 1497 1497 1497 1498 1497 1496 1496 1495 1495 1494 1494 1495 1494 1494 1494 1493 1492 1490 1486 1483 1481 1477 1472 1473 1476 1474 1473 1474 1474 1473 1472 1471 1470 1470 1470
1405 1408 1409 1412 1413 1415 1418 1420 1423 1425 1427 1430 1433 1435 1437 1438 1440 1441 1444 1446 1448 1450 1452 1454 1456 1458 1460 1462 1464 1467 1469 1471 1473 1476 1478 1480 1483 1484 1486 1487 1488 1488 1489 1489 1490 1491 1491 1492 1493 1494 1494 1495 1495 1495 1494 1494 1493 1493 1492 1492 1492 1491 1491 1491 1491 1490 1489 1487 1484 1481 1481 1480 1476 1473 1474 1473 1471 1471 1472 1471 1469 1468 1468 1468 1467